Dewpoint
71 72 70 71 71 70 70 70 71 71 72 72 72 72 73 74 75 75 75 75 75 75 75 74 74 75 76 74 74 74 74 74 74 74 74 74 74 74 74 74 73 72
71 73 72 71 72 72 71 71 71 72 72 72 72 72 73 74 74 75 75 75 75 75 75 74 75 75 75 74 74 73 73 74 74 76 74 74 74 74 74 74 73 72
72 72 72 70 71 72 71 71 72 72 72 72 72 73 73 74 74 74 74 75 75 75 75 75 75 75 75 74 74 73 73 73 74 73 74 73 73 73 74 74 73 73
72 72 72 71 71 71 71 72 72 72 72 72 72 72 73 73 73 74 74 76 74 74 75 75 76 76 75 75 74 73 73 73 74 74 73 74 75 74 74 73 75 74
72 72 72 71 71 72 71 71 72 72 72 72 72 72 73 73 73 73 73 74 74 74 74 75 76 76 75 75 74 74 74 74 74 74 73 73 73 74 74 73 73 73
72 72 72 72 71 72 71 71 71 71 72 72 71 72 72 72 73 73 73 73 73 74 74 75 75 75 75 75 75 74 74 74 74 73 73 73 74 74 74 74 72 72
71 72 72 72 72 72 71 71 71 71 71 71 72 72 72 71 71 73 73 73 73 73 74 74 75 75 75 75 74 74 74 74 74 74 73 73 73 73 73 72 72 71
71 71 72 72 72 71 71 71 71 71 71 71 71 71 72 71 71 71 73 73 73 73 73 74 74 75 74 74 74 74 74 74 74 73 73 73 72 72 72 72 71 71
71 71 72 72 71 71 71 70 70 70 71 71 70 70 71 71 71 71 72 73 73 73 73 73 74 74 74 74 74 74 73 74 74 73 73 73 72 72 72 72 71 71
71 71 71 71 71 71 70 70 70 69 70 70 69 69 69 70 70 71 71 72 73 73 73 72 73 73 73 74 74 73 73 73 73 73 73 73 72 72 72 72 72 71
71 71 71 71 71 71 70 70 70 69 69 69 69 68 68 69 70 70 71 71 71 72 72 72 72 72 72 73 73 73 73 73 73 73 73 72 72 72 74 72 72 72
71 71 71 71 71 70 70 70 70 69 68 69 69 68 68 67 68 69 69 70 71 71 71 72 72 72 72 72 72 72 73 73 73 73 72 72 72 71 71 72 72 72
70 71 70 70 71 71 70 69 68 68 68 67 68 68 67 67 67 67 69 69 70 71 71 71 71 71 71 71 71 71 71 72 72 72 72 72 71 71 71 71 71 71
71 71 71 70 71 71 71 70 68 67 67 67 68 67 66 66 66 66 67 68 68 69 71 71 71 71 71 71 71 71 71 71 71 71 71 71 71 71 71 71 71 71
71 71 71 71 72 71 72 71 70 69 68 68 68 68 67 66 66 65 65 66 67 68 68 70 71 71 71 71 71 71 71 70 71 71 71 71 71 71 71 71 71 71
71 71 71 71 71 71 71 71 71 70 70 69 68 68 67 68 69 70 66 64 65 67 67 67 68 69 71 69 70 71 71 70 70 70 70 70 71 70 70 70 70 70
71 71 71 71 71 70 70 71 71 71 71 70 70 69 69 69 71 70 69 66 64 64 66 67 67 67 67 65 65 67 71 70 70 70 70 70 70 70 70 70 70 70
72 71 71 72 72 71 72 72 72 71 71 71 71 71 71 72 71 71 71 70 68 65 64 65 66 68 63 63 63 64 67 71 70 70 70 70 70 69 69 69 69 70
70 70 70 70 71 71 72 72 71 71 71 71 71 71 72 71 71 71 71 72 72 70 68 66 65 65 63 62 62 62 62 66 69 69 69 69 69 70 69 69 70 70
69 69 69 70 71 71 71 72 72 71 72 72 72 72 72 71 72 72 71 71 71 71 71 71 70 67 62 61 61 61 61 63 66 68 69 69 69 69 69 69 69 69
68 69 69 70 70 70 71 71 71 71 71 72 72 72 71 71 71 71 71 72 72 72 71 71 70 64 62 61 59 59 61 63 65 66 67 68 69 70 70 70 70 70
68 68 69 69 70 70 70 70 70 71 71 71 72 73 72 72 72 72 72 72 71 72 71 71 70 62 62 60 59 58 59 64 65 66 66 66 67 68 68 69 70 70
68 68 68 69 69 69 69 70 70 69 70 71 71 71 72 72 72 72 72 72 72 72 71 71 71 64 60 59 58 57 60 63 64 64 65 65 65 66 67 67 68 69
62 62 64 66 67 66 67 69 69 69 70 71 71 71 72 72 73 72 72 72 72 72 72 71 71 68 58 57 57 56 63 65 64 65 65 65 65 66 66 66 67 71
59 61 61 61 63 62 62 64 66 68 68 70 71 71 72 72 73 73 72 72 73 73 74 73 73 71 59 57 57 56 61 66 66 66 66 66 66 66 67 67 66 69
57 59 58 58 58 57 56 58 60 61 62 65 68 71 71 72 72 72 72 72 73 73 73 73 73 72 67 57 55 56 56 67 67 67 67 67 67 67 67 67 68 68